MOLNIYA 3-13

Last updated on Nov. 15, 2019, 4:21 a.m. UTC

1 11896U 80063A   19317.90097507  .00000376  00000-0 -48744-2 0  9996
2 11896  62.5626 258.8759 7262054 274.6169  13.4647  2.00599722288154
UTC
Height (km)
Latitude
Longitude
Inclination
Orbital Period
UTC large
Height (km)
Speed (km/s)
/
Latitude / Longitude
Inclination (degrees)
Orbital Period (minutes)
Azimuth
Elevation
Range (km)
Doppler Factor
iOS Compass Heading
iOS Angle

Next 30 passes for location: Hong Kong

Rise time Rise Azimuth (degrees) Set time Set Azimuth (degrees) Duration Max altitude (degrees)

No matching passes for this satellites